DAH2015 LEBL-DAAG

Flight info

Callsign DAH2015
Flight time 0h 51m
Altitude 31000
Route LARPA N859 GENIO DCT BUYAH UA27 ALR
Aircraft B738/M-SDE2E3FGHIRWXY/LB1

Departure

Time 2026-04-27 21:07
Airport Josep Tarradellas Barcelona-El Prat Airport (LEBL)

Arrival

Time 2026-04-27 21:58
Airport Houari Boumediene Airport (DAAG)
Time Latitude Longitude Altitude Speed Heading
2026-04-27 20:05 41.29068 2.08162 19 ft 0 kts 335°
2026-04-27 20:57 41.29060 2.08166 19 ft 4 kts 335°
2026-04-27 20:57 41.29035 2.08181 20 ft 4 kts 335°
2026-04-27 20:57 41.29013 2.08194 21 ft 4 kts 352°
2026-04-27 20:58 41.28992 2.08187 20 ft 4 kts 54°
2026-04-27 20:58 41.28982 2.08165 20 ft 1 kts 65°
2026-04-27 20:58 41.28981 2.08161 19 ft 0 kts 65°
2026-04-27 21:01 41.28981 2.08162 18 ft 1 kts 65°
2026-04-27 21:01 41.29000 2.08217 18 ft 11 kts 65°
2026-04-27 21:02 41.29018 2.08326 17 ft 13 kts 120°
2026-04-27 21:02 41.28929 2.08322 17 ft 16 kts 198°
2026-04-27 21:02 41.28806 2.08266 15 ft 20 kts 199°
2026-04-27 21:02 41.28694 2.08208 17 ft 15 kts 216°
2026-04-27 21:03 41.28641 2.08084 16 ft 19 kts 245°
2026-04-27 21:03 41.28580 2.07910 16 ft 22 kts 245°
2026-04-27 21:03 41.28520 2.07729 17 ft 21 kts 245°
2026-04-27 21:03 41.28459 2.07554 15 ft 21 kts 245°
2026-04-27 21:04 41.28370 2.07444 15 ft 15 kts 202°
2026-04-27 21:04 41.28274 2.07402 16 ft 9 kts 186°
2026-04-27 21:04 41.28231 2.07421 18 ft 4 kts 150°
2026-04-27 21:04 41.28232 2.07435 18 ft 2 kts 73°
2026-04-27 21:05 41.28233 2.07439 17 ft 0 kts 66°
2026-04-27 21:06 41.28255 2.07503 18 ft 31 kts 66°
2026-04-27 21:06 41.28486 2.08181 22 ft 126 kts 65°
2026-04-27 21:07 41.28950 2.09511 330 ft 172 kts 65°
2026-04-27 21:07 41.29351 2.10965 1496 ft 169 kts 84°
2026-04-27 21:07 41.29256 2.12517 2379 ft 170 kts 97°
2026-04-27 21:07 41.29104 2.14107 2926 ft 183 kts 97°
2026-04-27 21:08 41.28933 2.15916 3247 ft 206 kts 97°
2026-04-27 21:08 41.28753 2.17838 3735 ft 213 kts 97°
2026-04-27 21:08 41.28571 2.19800 4333 ft 215 kts 97°
2026-04-27 21:08 41.28383 2.21844 4632 ft 239 kts 97°
2026-04-27 21:09 41.28170 2.24171 4882 ft 269 kts 97°
2026-04-27 21:09 41.27931 2.26776 5139 ft 298 kts 97°
2026-04-27 21:09 41.27669 2.29617 5535 ft 318 kts 97°
2026-04-27 21:09 41.27082 2.32483 6275 ft 327 kts 114°
2026-04-27 21:10 41.26078 2.35203 7114 ft 330 kts 116°
2026-04-27 21:10 41.25035 2.37952 7916 ft 334 kts 117°
2026-04-27 21:10 41.23641 2.40442 8655 ft 342 kts 140°
2026-04-27 21:10 41.21518 2.41834 9475 ft 346 kts 168°
2026-04-27 21:11 41.19105 2.42015 10297 ft 349 kts 181°
2026-04-27 21:11 41.16656 2.41902 11021 ft 354 kts 182°
2026-04-27 21:11 41.14183 2.41768 11688 ft 360 kts 182°
2026-04-27 21:11 41.11654 2.41633 12381 ft 365 kts 182°
2026-04-27 21:12 41.09107 2.41509 13089 ft 369 kts 182°
2026-04-27 21:12 41.06523 2.41393 13787 ft 373 kts 182°
2026-04-27 21:12 41.03915 2.41285 14449 ft 377 kts 182°
2026-04-27 21:12 41.01283 2.41182 15147 ft 378 kts 182°
2026-04-27 21:13 40.98652 2.41082 15840 ft 380 kts 182°
2026-04-27 21:13 40.95994 2.40985 16502 ft 383 kts 182°
2026-04-27 21:13 40.93320 2.40881 17144 ft 386 kts 183°
2026-04-27 21:13 40.90631 2.40779 17781 ft 388 kts 182°
2026-04-27 21:14 40.87921 2.40683 18411 ft 391 kts 182°
2026-04-27 21:14 40.85185 2.40553 18914 ft 395 kts 183°
2026-04-27 21:14 40.82425 2.40451 19430 ft 399 kts 182°
2026-04-27 21:14 40.79635 2.40359 19954 ft 402 kts 182°
2026-04-27 21:15 40.76828 2.40267 20473 ft 406 kts 182°
2026-04-27 21:15 40.73993 2.40170 20981 ft 409 kts 183°
2026-04-27 21:15 40.71139 2.40069 21473 ft 412 kts 183°
2026-04-27 21:15 40.68255 2.39965 21955 ft 416 kts 183°
2026-04-27 21:16 40.65354 2.39859 22436 ft 419 kts 183°
2026-04-27 21:16 40.62424 2.39752 22911 ft 422 kts 183°
2026-04-27 21:16 40.59471 2.39644 23374 ft 426 kts 183°
2026-04-27 21:16 40.56502 2.39536 23803 ft 429 kts 183°
2026-04-27 21:17 40.54517 2.39464 24057 ft 431 kts 183°
2026-04-27 21:17 40.51508 2.39375 24464 ft 433 kts 181°
2026-04-27 21:17 40.47531 2.39997 24979 ft 439 kts 168°
2026-04-27 21:17 40.44573 2.41030 25377 ft 441 kts 166°
2026-04-27 21:18 40.41604 2.42115 25756 ft 444 kts 166°
2026-04-27 21:18 40.39587 2.42850 26000 ft 445 kts 166°
2026-04-27 21:18 40.36592 2.43925 26355 ft 448 kts 166°
2026-04-27 21:18 40.33573 2.44987 26708 ft 450 kts 166°
2026-04-27 21:19 40.30536 2.46041 27058 ft 452 kts 167°
2026-04-27 21:19 40.27489 2.47091 27400 ft 454 kts 167°
2026-04-27 21:19 40.24421 2.48146 27734 ft 456 kts 167°
2026-04-27 21:20 40.18280 2.50259 28341 ft 461 kts 167°
2026-04-27 21:20 40.15178 2.51328 28749 ft 461 kts 167°
2026-04-27 21:20 40.12080 2.52397 29257 ft 459 kts 167°
2026-04-27 21:20 40.08997 2.53460 29755 ft 457 kts 166°
2026-04-27 21:21 40.05889 2.54531 30204 ft 456 kts 166°
2026-04-27 21:21 40.02823 2.55585 30531 ft 456 kts 167°
2026-04-27 21:21 39.99748 2.56642 30852 ft 456 kts 167°
2026-04-27 21:21 39.96677 2.57696 31113 ft 458 kts 167°
2026-04-27 21:22 39.90469 2.59823 31102 ft 461 kts 167°
2026-04-27 21:22 39.84345 2.61920 31090 ft 455 kts 167°
2026-04-27 21:23 39.78174 2.64027 31103 ft 456 kts 167°
2026-04-27 21:23 39.72028 2.66122 31110 ft 457 kts 167°
2026-04-27 21:24 39.65904 2.68203 31112 ft 458 kts 167°
2026-04-27 21:24 39.59729 2.70300 31110 ft 459 kts 167°
2026-04-27 21:25 39.53533 2.72404 31101 ft 459 kts 167°
2026-04-27 21:25 39.47341 2.74501 31105 ft 459 kts 167°
2026-04-27 21:26 39.41158 2.76599 31103 ft 459 kts 167°
2026-04-27 21:26 39.34988 2.78746 31103 ft 459 kts 167°
2026-04-27 21:27 39.28824 2.80897 31090 ft 459 kts 167°
2026-04-27 21:27 39.22666 2.83035 31097 ft 458 kts 167°
2026-04-27 21:28 39.16514 2.85163 31100 ft 458 kts 167°
2026-04-27 21:28 39.10365 2.87287 31098 ft 457 kts 167°
2026-04-27 21:29 39.04218 2.89407 31094 ft 457 kts 167°
2026-04-27 21:29 38.98075 2.91498 31097 ft 457 kts 167°
2026-04-27 21:30 38.91919 2.93566 31098 ft 457 kts 167°
2026-04-27 21:30 38.85758 2.95668 31096 ft 458 kts 167°
2026-04-27 21:31 38.79603 2.97778 31090 ft 458 kts 167°
2026-04-27 21:31 38.73443 2.99882 31091 ft 458 kts 167°
2026-04-27 21:32 38.67275 3.01983 31087 ft 459 kts 167°
2026-04-27 21:32 38.61103 3.04080 31082 ft 459 kts 168°
2026-04-27 21:33 38.54925 3.06176 31089 ft 459 kts 168°
2026-04-27 21:33 38.48742 3.08270 31088 ft 460 kts 168°
2026-04-27 21:34 38.42589 3.10351 31086 ft 460 kts 168°
2026-04-27 21:34 38.36399 3.12442 31070 ft 458 kts 168°
2026-04-27 21:35 38.33323 3.13479 30679 ft 454 kts 168°
2026-04-27 21:35 38.30292 3.14465 30267 ft 447 kts 171°
2026-04-27 21:35 38.27245 3.14978 29760 ft 439 kts 181°
2026-04-27 21:35 38.24215 3.15003 29300 ft 432 kts 183°
2026-04-27 21:36 38.21226 3.14983 28819 ft 428 kts 182°
2026-04-27 21:36 38.18263 3.14989 28347 ft 423 kts 182°
2026-04-27 21:36 38.15333 3.15026 27881 ft 419 kts 181°
2026-04-27 21:36 38.12425 3.15068 27391 ft 416 kts 183°
2026-04-27 21:37 38.09567 3.14755 26918 ft 409 kts 193°
2026-04-27 21:37 38.06802 3.14017 26483 ft 405 kts 194°
2026-04-27 21:37 38.04058 3.13267 26025 ft 402 kts 194°
2026-04-27 21:37 38.01337 3.12526 25576 ft 399 kts 194°
2026-04-27 21:38 37.98634 3.11798 25138 ft 396 kts 194°
2026-04-27 21:38 37.95934 3.11078 24694 ft 394 kts 194°
2026-04-27 21:38 37.93260 3.10370 24245 ft 392 kts 194°
2026-04-27 21:38 37.90596 3.09666 23801 ft 390 kts 195°
2026-04-27 21:39 37.87944 3.08942 23294 ft 389 kts 194°
2026-04-27 21:39 37.85318 3.08200 22823 ft 386 kts 193°
2026-04-27 21:39 37.82704 3.07512 22370 ft 383 kts 194°
2026-04-27 21:39 37.80097 3.06866 21927 ft 380 kts 193°
2026-04-27 21:40 37.77516 3.06209 21500 ft 376 kts 194°
2026-04-27 21:40 37.74965 3.05547 21074 ft 374 kts 193°
2026-04-27 21:40 37.72426 3.04922 20653 ft 371 kts 192°
2026-04-27 21:40 37.69897 3.04286 20231 ft 368 kts 195°
2026-04-27 21:41 37.67402 3.03630 19807 ft 365 kts 194°
2026-04-27 21:41 37.64926 3.02964 19393 ft 363 kts 195°
2026-04-27 21:41 37.62458 3.02305 18988 ft 361 kts 194°
2026-04-27 21:41 37.59999 3.01707 18574 ft 360 kts 193°
2026-04-27 21:42 37.57553 3.01063 18119 ft 358 kts 194°
2026-04-27 21:42 37.55121 3.00423 17673 ft 355 kts 195°
2026-04-27 21:42 37.52718 2.99760 17239 ft 353 kts 193°
2026-04-27 21:42 37.50323 2.99149 16832 ft 350 kts 193°
2026-04-27 21:43 37.47946 2.98544 16424 ft 348 kts 193°
2026-04-27 21:43 37.45570 2.97962 16011 ft 346 kts 192°
2026-04-27 21:43 37.43222 2.97378 15617 ft 343 kts 194°
2026-04-27 21:43 37.40888 2.96773 15220 ft 341 kts 194°
2026-04-27 21:44 37.38568 2.96168 14817 ft 339 kts 194°
2026-04-27 21:44 37.36263 2.95565 14424 ft 338 kts 194°
2026-04-27 21:44 37.33940 2.95057 13966 ft 340 kts 191°
2026-04-27 21:44 37.31593 2.94655 13473 ft 341 kts 190°
2026-04-27 21:45 37.29247 2.94283 13066 ft 336 kts 190°
2026-04-27 21:45 37.26951 2.93918 12478 ft 330 kts 189°
2026-04-27 21:45 37.24690 2.93552 11795 ft 328 kts 189°
2026-04-27 21:45 37.22408 2.93321 11090 ft 329 kts 185°
2026-04-27 21:46 37.20154 2.93227 10784 ft 316 kts 185°
2026-04-27 21:46 37.18010 2.93183 10513 ft 303 kts 185°
2026-04-27 21:46 37.15943 2.93090 10198 ft 293 kts 185°
2026-04-27 21:46 37.13929 2.93015 9825 ft 286 kts 185°
2026-04-27 21:47 37.11964 2.92938 9436 ft 280 kts 184°
2026-04-27 21:47 37.10048 2.92858 9121 ft 271 kts 184°
2026-04-27 21:47 37.08187 2.92775 8820 ft 264 kts 185°
2026-04-27 21:47 37.06371 2.92691 8539 ft 259 kts 184°
2026-04-27 21:48 37.04572 2.92600 8280 ft 259 kts 186°
2026-04-27 21:48 37.02756 2.92509 8007 ft 264 kts 185°
2026-04-27 21:48 37.00880 2.92425 7743 ft 274 kts 185°
2026-04-27 21:48 36.98974 2.92336 7430 ft 271 kts 185°
2026-04-27 21:49 36.97118 2.92247 7143 ft 263 kts 184°
2026-04-27 21:49 36.95320 2.92138 6856 ft 256 kts 183°
2026-04-27 21:49 36.93555 2.92062 6587 ft 254 kts 183°
2026-04-27 21:49 36.91786 2.91998 6319 ft 255 kts 183°
2026-04-27 21:50 36.90008 2.91885 6047 ft 265 kts 184°
2026-04-27 21:50 36.88147 2.91777 5901 ft 267 kts 182°
2026-04-27 21:50 36.86333 2.91705 5756 ft 254 kts 182°
2026-04-27 21:50 36.84616 2.91628 5623 ft 241 kts 182°
2026-04-27 21:51 36.82990 2.91539 5516 ft 227 kts 182°
2026-04-27 21:51 36.81461 2.91450 5431 ft 213 kts 181°
2026-04-27 21:51 36.80024 2.91428 5359 ft 200 kts 182°
2026-04-27 21:51 36.78655 2.91359 5228 ft 197 kts 182°
2026-04-27 21:52 36.77292 2.91290 5047 ft 196 kts 180°
2026-04-27 21:52 36.75935 2.91225 4823 ft 194 kts 182°
2026-04-27 21:52 36.74596 2.91156 4602 ft 192 kts 181°
2026-04-27 21:52 36.73270 2.91090 4409 ft 190 kts 180°
2026-04-27 21:53 36.71955 2.91024 4205 ft 188 kts 179°
2026-04-27 21:53 36.70680 2.91274 3956 ft 185 kts 147°
2026-04-27 21:53 36.69983 2.92503 3863 ft 178 kts 99°
2026-04-27 21:53 36.69811 2.94068 3652 ft 185 kts 98°
2026-04-27 21:54 36.69725 2.95671 3414 ft 184 kts 92°
2026-04-27 21:54 36.69683 2.97262 3181 ft 181 kts 92°
2026-04-27 21:54 36.69659 2.98834 2943 ft 181 kts 92°
2026-04-27 21:54 36.69632 3.00410 2701 ft 183 kts 94°
2026-04-27 21:55 36.69536 3.01993 2470 ft 183 kts 95°
2026-04-27 21:55 36.69516 3.03569 2215 ft 182 kts 88°
2026-04-27 21:55 36.69519 3.05141 1979 ft 180 kts 93°
2026-04-27 21:55 36.69465 3.06677 1745 ft 173 kts 92°
2026-04-27 21:56 36.69424 3.08108 1539 ft 161 kts 92°
2026-04-27 21:56 36.69357 3.10814 1091 ft 155 kts 93°
2026-04-27 21:56 36.69324 3.12159 896 ft 155 kts 93°
2026-04-27 21:57 36.69293 3.13511 688 ft 158 kts 92°
2026-04-27 21:57 36.69259 3.14876 476 ft 156 kts 93°
2026-04-27 21:57 36.69237 3.15772 335 ft 157 kts 94°
2026-04-27 21:57 36.69195 3.17561 86 ft 152 kts 94°
2026-04-27 21:58 36.69167 3.18716 77 ft 105 kts 92°
2026-04-27 21:58 36.69151 3.19389 72 ft 54 kts 92°
2026-04-27 21:58 36.69163 3.19737 65 ft 26 kts 78°
2026-04-27 21:58 36.69228 3.19929 66 ft 19 kts 62°
2026-04-27 21:59 36.69284 3.20074 63 ft 18 kts 71°
2026-04-27 21:59 36.69296 3.20178 70 ft 18 kts 84°
2026-04-27 21:59 36.69353 3.20289 67 ft 16 kts
2026-04-27 21:59 36.69445 3.20255 65 ft 11 kts 294°
2026-04-27 22:00 36.69450 3.20191 69 ft 11 kts 272°
2026-04-27 22:00 36.69452 3.20094 69 ft 11 kts 272°
2026-04-27 22:00 36.69463 3.20002 65 ft 11 kts 304°
2026-04-27 22:00 36.69536 3.19984 67 ft 11 kts
2026-04-27 22:01 36.69614 3.19987 69 ft 11 kts
2026-04-27 22:01 36.69690 3.19990 69 ft 11 kts
2026-04-27 22:01 36.69761 3.20003 67 ft 10 kts 26°
2026-04-27 22:01 36.69818 3.20056 69 ft 10 kts 38°
2026-04-27 22:02 36.69839 3.20078 66 ft 1 kts 38°
2026-04-27 22:02 36.69840 3.20079 67 ft 0 kts 38°